This demonstration page uses our WeatherBlox Daily Observations layout. Learn more.

41.55636, -103.73856

Hourly Observations for January 5, 2019

Temp ( °F °C ) Dew Point ( °F °C ) Humidity (%) Winds ( mph kmh ) Pressure ( in mb ) Visibility ( mi km ) Precip ( " mm )
12:53 am 00:53 Clear 29 -1.7 20 -6.7 69 69 NW 8 13 29.94 1014 10 16.09344 0 0
1:53 am 01:53 Clear 28 -2.2 20 -6.7 72 72 WNW 6 9 29.94 1014 10 16.09344 0 0
2:53 am 02:53 Clear 28 -2.2 20 -6.7 72 72 NNW 3 6 29.94 1014 10 16.09344 0 0
3:53 am 03:53 Clear 26 -3.3 19 -7.2 75 75 W 3 6 29.94 1014 10 16.09344 0 0
4:53 am 04:53 Clear 24 -4.4 19 -7.2 81 81 NNW 6 9 29.97 1015 10 16.09344 0 0
5:53 am 05:53 Clear 23 -5 18 -7.8 81 81 SSW 3 6 30 1016 10 16.09344 0 0
6:53 am 06:53 Clear 23 -5 19 -7.2 85 85 WNW 6 9 30.03 1017 10 16.09344 0 0
7:53 am 07:53 Sunny 25 -3.9 20 -6.7 81 81 W 5 7 30.06 1018 10 16.09344 0 0
8:53 am 08:53 Sunny 35 1.7 24 -4.4 64 64 WNW 5 7 30.03 1017 10 16.09344 0 0
9:53 am 09:53 Sunny 45 7.2 24 -4.4 44 44 NNW 5 7 30.03 1017 10 16.09344 0 0
10:53 am 10:53 Sunny 48 8.9 22 -5.6 36 36 WSW 5 7 30 1016 10 16.09344 0 0
11:53 am 11:53 Sunny 51 10.6 23 -5 33 33 VRB 3 6 29.94 1014 10 16.09344 0 0
12:53 pm 12:53 Sunny 55 12.8 22 -5.6 28 28 Calm 29.91 1013 10 16.09344 0 0
1:53 pm 13:53 Sunny 58 14.4 21 -6.1 24 24 SE 9 15 29.91 1013 10 16.09344 0 0
2:53 pm 14:53 Sunny 55 12.8 21 -6.1 26 26 SE 6 9 29.91 1013 10 16.09344 0 0
3:53 pm 15:53 Sunny 46 7.8 20 -6.7 35 35 E 9 15 29.97 1015 10 16.09344 0 0
4:53 pm 16:53 Clear 45 7.2 22 -5.6 40 40 E 9 15 29.97 1015 10 16.09344 0 0
5:53 pm 17:53 Clear 39 3.9 22 -5.6 50 50 E 7 11 30 1016 10 16.09344 0 0
6:53 pm 18:53 Clear 41 5 23 -5 49 49 E 12 19 29.97 1015 10 16.09344 0 0
7:53 pm 19:53 Clear 40 4.4 25 -3.9 55 55 E 12 19 29.97 1015 10 16.09344 0 0
8:53 pm 20:53 Clear 38 3.3 26 -3.3 62 62 E 8 13 29.97 1015 10 16.09344 0 0
9:53 pm 21:53 Clear 35 1.7 26 -3.3 70 70 E 8 13 29.94 1014 10 16.09344 0 0
10:53 pm 22:53 Clear 35 1.7 27 -2.8 72 72 ENE 8 13 29.88 1012 10 16.09344 0 0
11:53 pm 23:53 Clear 35 1.7 27 -2.8 72 72 ESE 6 9 29.85 1011 10 16.09344 0 0

Powered by AerisWeather